Tracking 19969 objects as of 12-Nov-2019
Live streaming from Space Station
objects crossing your sky now
Track the group of recently launched Starlink satellites

TOPO 1

Track TOPO 1 now!
10-day predictions
TOPO 1 is classified as:


NORAD ID: 4363
Int'l Code: 1970-025B
Perigee: 1,090.2 km
Apogee: 1,093.8 km
Inclination: 100.0 °
Period: 106.9 minutes
Semi major axis: 7463 km
RCS: 0.1794 m2 (medium)
Launch date: April 8, 1970
Source: United States (US)
Launch site: AIR FORCE WESTERN TEST RANGE (AFWTR)
aabbcc
Your satellite tracking list
Your tracking list is empty




NASA's NSSDC Master Catalog

Two Line Element Set (TLE):
1  4363U 70025B   19315.71218976 -.00000028 +00000-0 +27425-4 0  9995
2  4363 099.9672 217.8197 0002463 122.4259 263.9307 13.46579257436894
Source of the keplerian elements: AFSPC